Regional Weather Roundup
Issued by NWS

Home | Current Version | Previous Version | Text Only | Print | Product List | Glossary Off
Versions: 1 2 3 4 5 6 7 8 9 10 11 12 13 14 15 16 17 18 19 20 21 22 23 24 25 26 27 28 29 30 31 32 33 34 35 36 37 38 39 40 41 42 43 44 45 46 47 48 49 50

000
ASUS43 KDTX 251310
RWRMI
MICHIGAN HOURLY REGIONAL WEATHER ROUNDUP
NATIONAL WEATHER SERVICE DETROIT/PONTIAC MI
900 AM EDT MON MAY 25 2015

NOTE: "FAIR" INDICATES FEW OR NO CLOUDS BELOW 12,000 FEET WITH NO
SIGNIFICANT WEATHER AND/OR OBSTRUCTION TO VISIBILITY.

MIZ047>049-052>055-059>063-066>070-074>076-081>083-251400-
SOUTHEAST LOWER MICHIGAN

CITY           SKY/WX    TMP DP  RH WIND       PRES   REMARKS
ADRIAN         LGT RAIN  71  59  65 SW15      30.02S
ALMA           CLOUDY    70  61  74 S8        29.94S
ANN ARBOR      CLOUDY    69  58  67 SW10      30.01S
BAD AXE        CLOUDY    69  57  65 S12G17    29.97S
CARO           CLOUDY    72  60  65 S12G17    29.96S
DETROIT CITY   CLOUDY    71  57  61 SW15G23   30.02S
DETROIT        CLOUDY    74  58  57 S12       30.02S
FLINT          CLOUDY    74  58  57 S15       29.98R
GROSSE ILE     CLOUDY    66  61  82 S9        30.02S
HILLSDALE      CLOUDY    70  60  71 S7        30.00F
HOWELL         CLOUDY    70  57  62 S12G20    29.99S

CITY           SKY/WX    TMP DP  RH WIND       PRES   REMARKS
JACKSON        CLOUDY    71  60  68 S14       29.99S
LAMBERTVILLE   CLOUDY    73  59  60 SW9G17    30.03S
LANSING        CLOUDY    70  59  68 S15       29.97R
LAPEER         PTSUNNY   71  56  59 SW9G23    30.00R
MASON          CLOUDY    69  58  69 S8        29.98R
MONROE         CLOUDY    73  59  60 SW9       30.01S
MT. CLEMENS    CLOUDY    71  60  67 S7        30.00S
PONTIAC        CLOUDY    71  57  61 S12       30.00S
PORT HOPE        N/A     71  58  63 S8G17     29.93F
PORT HURON     CLOUDY    68  57  68 S10       30.02S
TRI CITIES     CLOUDY    72  59  63 S14       29.94S
MIDLAND        FAIR      69  58  67 S8        29.93S
TROY           CLOUDY    72  56  56 SW12      30.03S
SAGINAW HB     CLOUDY    72  57  60 S18       29.94S
$$
MIZ043>046-050>051-056>058-064>065-071>073-077>080-251400-
SOUTHWEST LOWER MICHIGAN

CITY           SKY/WX    TMP DP  RH WIND       PRES   REMARKS
BATTLE CREEK   CLOUDY    72  61  68 S17G23    29.96S
BENTON HARBOR  CLOUDY    72  64  76 S14G24    29.89F
BIG RAPIDS     CLOUDY    63  61  92 SE6       29.90S
COLDWATER      CLOUDY    71  60  68 SW9       29.98S
FREMONT        RAIN      67  62  86 S5        29.88F
HOLLAND        CLOUDY    73  63  70 S12       29.90F
GRAND RAPIDS   LGT RAIN  72  62  71 S10       29.92S
IONIA          FAIR      73  60  64 S15G24    29.92F
KALAMAZOO      CLOUDY    72  62  71 S12       29.94F
LUDINGTON      RAIN      68  64  85 S10       29.85F
MARSHALL       CLOUDY    71  61  70 S8        29.96F
MOUNT PLEASANT CLOUDY    68  60  76 S5        29.92S
MUSKEGON       CLOUDY    72  61  68 S16G23    29.87F
SOUTH HAVEN    CLOUDY    73  62  69 S12G21    29.90S
$$
MIZ016>042-251400-
NORTHERN LOWER MICHIGAN

CITY           SKY/WX    TMP DP  RH WIND       PRES   REMARKS
ALPENA         CLOUDY    53  52  96 E7        29.93S
BEAVER ISLAND  CLOUDY    56  55  98 E9        29.86F
BELLAIRE       CLOUDY    63  60  91 CALM      29.86F
CADILLAC       LGT RAIN  65  61  87 S9        29.89S
CHARLEVOIX     CLOUDY    60  60 100 SE6       29.89S FOG
FRANKFORT      LGT RAIN  66  59  78 SE3       29.83F
GAYLORD        CLOUDY    59  59 100 S7        29.90S
GRAYLING       CLOUDY    61  59  94 CALM      29.91F
HARBOR SPRINGS LGT RAIN  59  58  97 E6        29.88F
HOUGHTON LAKE  CLOUDY    65  58  78 S12G18    29.91F
MANISTEE       CLOUDY    64  61  88 S6        29.86S
OSCODA         CLOUDY    56  53  89 CALM      29.93S
PELLSTON       LGT RAIN  58  57  97 E5        29.89F
ROGERS CITY    LGT RAIN  50  49  98 NE5       29.93F
TRAVERSE CITY  CLOUDY    64  60  87 VRB3      29.84F
$$
MIZ007>008-015-251400-
EASTERN UPPER MICHIGAN

CITY           SKY/WX    TMP DP  RH WIND       PRES   REMARKS
KINROSS        CLOUDY    54  54 100 E13       29.91F
MACKINAC ISLAN RAIN      55  55 100 SE16G24   29.89F
NEWBERRY       RAIN      55  55  98 SE8       29.88F
S. S. MARIE    LGT RAIN  55  54  96 E9        29.92F FOG
MUNISING         N/A     60  56  86 VRB3      29.83F
$$
MIZ004>006-011>014-085-251400-
CENTRAL UPPER MICHIGAN

CITY           SKY/WX    TMP DP  RH WIND       PRES   REMARKS
MANISTIQUE     LGT RAIN  55  54  96 E13       29.84F
ESCANABA       CLOUDY    55  52  88 E12       29.81S
MENOMINEE      CLOUDY    54  52  94 SE7       29.78F
SAWYER-GWINN   RAIN      55  54  94 E5        29.82F
$$
MIZ001>003-009>011-084-251400-
WESTERN UPPER MICHIGAN

CITY           SKY/WX    TMP DP  RH WIND       PRES   REMARKS
IRON MOUNTAIN  LGT RAIN  56  55  97 VRB3      29.77F
HOUGHTON       LGT RAIN  52  51  97 E13       29.81S VSB<1/4
COPPER HARBOR    N/A     56  54  93 VRB5      29.84F
IRONWOOD       CLOUDY    57  57 100 E12       29.70F
$$

ABBREVIATIONS USED IN REMARKS
   TC - TEMPERATURE IN CELSIUS
  WCI - WIND CHILL INDEX
   HX - HEAT INDEX
  VSB - VISIBILITY



USA.gov is the U.S. government's official web portal to all federal, state and local government web resources and services.